This demonstration page uses our WeatherBlox Daily Observations layout. Learn more.

Left ArrowRight Arrow

Hourly Observations for November 23, 2018

Temp ( °F °C ) Dew Point ( °F °C ) Humidity (%) Winds ( mph kmh ) Pressure ( in mb ) Visibility ( mi km ) Precip ( " mm )
12:53 am 00:53 Clear 30 -1.1 26 -3.3 85 85 E 5 7 30.35 1028 10 16 0.00 0.00
1:53 am 01:53 Clear 29 -1.7 25 -3.9 85 85 Calm 30.34 1027 8 13 0.00 0.00
2:53 am 02:53 Clear 28 -2.2 25 -3.9 88 88 Calm 30.32 1027 10 16 0.00 0.00
3:53 am 03:53 Clear 28 -2.2 24 -4.4 85 85 Calm 30.30 1026 7 11 0.00 0.00
4:53 am 04:53 Clear 27 -2.8 23 -5 85 85 Calm 30.29 1026 8 13 0.00 0.00
5:53 am 05:53 Clear 27 -2.8 23 -5 85 85 Calm 30.27 1025 7 11 0.00 0.00
6:53 am 06:53 Clear 26 -3.3 22 -5.6 84 84 Calm 30.27 1025 7 11 0.00 0.00
7:53 am 07:53 Sunny 27 -2.8 24 -4.4 89 89 ENE 3 6 30.26 1025 8 13 0.00 0.00
8:53 am 08:53 Sunny 33 0.6 28 -2.2 82 82 E 6 9 30.26 1025 10 16 0.00 0.00
9:53 am 09:53 Sunny 38 3.3 31 -0.6 76 76 ESE 5 7 30.25 1024 10 16 0.00 0.00
10:53 am 10:53 Sunny 43 6.1 32 0 65 65 SSE 6 9 30.24 1024 10 16 0.00 0.00
11:53 am 11:53 Sunny 47 8.3 34 1.1 61 61 VRB 7 11 30.19 1022 10 16 0.00 0.00
12:53 pm 12:53 Sunny 49 9.4 35 1.7 59 59 VRB 3 6 30.16 1021 10 16 0.00 0.00
1:53 pm 13:53 Sunny 51 10.6 36 2.2 56 56 VRB 3 6 30.13 1020 10 16 0.00 0.00
2:53 pm 14:53 Sunny 51 10.6 36 2.2 56 56 SE 5 7 30.09 1019 10 16 0.00 0.00
3:53 pm 15:53 Sunny 52 11.1 37 2.8 57 57 VRB 3 6 30.06 1018 10 16 0.00 0.00
4:53 pm 16:53 Sunny 51 10.6 38 3.3 61 61 VRB 6 9 30.05 1018 10 16 0.00 0.00
5:53 pm 17:53 Clear 50 10 38 3.3 63 63 ESE 5 7 30.03 1017 10 16 0.00 0.00
6:53 pm 18:53 Partly Cloudy 50 10 39 3.9 66 66 ESE 5 7 30.00 1016 10 16 0.00 0.00
7:53 pm 19:53 Clear 50 10 38 3.3 63 63 VRB 6 9 29.96 1014 10 16 0.00 0.00
8:53 pm 20:53 Mostly Clear 50 10 38 3.3 63 63 ESE 7 11 29.91 1013 10 16 0.00 0.00
9:53 pm 21:53 Cloudy with Light Rain 50 10 38 3.3 63 63 VRB 6 9 29.88 1012 10 16 0.00 0.03
10:53 pm 22:53 Mostly Cloudy 50 10 38 3.3 63 63 SE 3 6 29.85 1011 10 16 0.00 0.03
11:53 pm 23:53 Cloudy with Rain 47 8.3 42 5.6 83 83 S 5 7 29.85 1011 4 6 0.11 2.79

Powered by AerisWeather